This is the latest recevied weather packets stored in our database for station/object KC1TEM-13. If no packets are shown the sender has not sent any weather packets the latest 10 day(s).
| Time | Temp. | Humidity | Pressure | Rain* | Wind** | Luminosity | Snow |
|---|---|---|---|---|---|---|---|
| 1777406262 | 13.89° C | 23% | 1022.3 hPa | 0 mm | - | 553 W/m² | - |
| 1777405961 | 13.89° C | 22% | 1022.3 hPa | 0 mm | - | 573 W/m² | - |
| 1777405657 | 13.89° C | 23% | 1022.3 hPa | 0 mm | - | 592 W/m² | - |
| 1777405355 | 13.33° C | 26% | 1022.3 hPa | 0 mm | - | 595 W/m² | - |
| 1777405050 | 13.89° C | 28% | 1022.3 hPa | 0 mm | - | 610 W/m² | - |
| 1777404745 | 14.44° C | 26% | 1022.3 hPa | 0 mm | - | 550 W/m² | - |
| 1777404137 | 14.44° C | 25% | 1022.5 hPa | 0 mm | - | 649 W/m² | - |
| 1777403529 | 14.44° C | 27% | 1022.6 hPa | 0 mm | - | 678 W/m² | - |
| 1777402924 | 14.44° C | 26% | 1022.6 hPa | 0 mm | - | 701 W/m² | - |
| 1777402620 | 14.44° C | 28% | 1022.6 hPa | 0 mm | - | 716 W/m² | - |
| 1777402017 | 14.44° C | 30% | 1022.9 hPa | 0 mm | - | 737 W/m² | - |
| 1777399894 | 13.89° C | 42% | 1023.4 hPa | 0 mm | - | 803 W/m² | - |
| 1777397773 | 14.44° C | 47% | 1023.3 hPa | 0 mm | - | 854 W/m² | - |
| 1777397468 | 14.44° C | 47% | 1023.3 hPa | 0 mm | - | 847 W/m² | - |
| 1777396862 | 15° C | 49% | 1023.2 hPa | 0 mm | - | 863 W/m² | - |
| 1777396558 | 15° C | 48% | 1023.4 hPa | 0 mm | - | 869 W/m² | - |
| 1777395951 | 13.89° C | 48% | 1023.4 hPa | 0 mm | - | 875 W/m² | - |
| 1777395646 | 13.89° C | 49% | 1023.3 hPa | 0 mm | - | 880 W/m² | - |
| 1777395343 | 13.89° C | 48% | 1023.3 hPa | 0 mm | - | 882 W/m² | - |
| 1777394737 | 13.89° C | 49% | 1023.4 hPa | 0 mm | - | 886 W/m² | - |
| 1777394130 | 13.89° C | 49% | 1023.3 hPa | 0 mm | - | 888 W/m² | - |
| 1777393826 | 13.89° C | 49% | 1023.6 hPa | 0 mm | - | 890 W/m² | - |
| 1777393525 | 14.44° C | 49% | 1023.6 hPa | 0 mm | - | 889 W/m² | - |
| 1777392918 | 14.44° C | 46% | 1023.7 hPa | 0 mm | - | 886 W/m² | - |
| 1777392613 | 13.89° C | 50% | 1023.7 hPa | 0 mm | - | 886 W/m² | - |
* Rain latest hour (hover to see other rain measurements)
** Current wind speed in m/s (hover to see current wind gust speed)